Location: Unspecified
(0.0000°N, 0.0000°E)
Time: 12:51:28
(UTC+02:00)

ATLAS V CENTAUR R/B - Visible Passes

Search period start: 25 July 2017 00:00
Search period end: 04 August 2017 00:00
Orbit: 256 x 27886 km, 18.1° (Epoch: 23 July)

Date Brightness Start Highest point End Pass type
(mag) Time Alt. Az. Time Alt. Az. Time Alt. Az.
27 Jul 7.5 13:26:59 10° WNW 18:41:00 49° E 20:36:42 10° ESE visible
28 Jul 7.7 13:42:58 10° WNW 18:55:46 54° E 20:53:42 12° ESE visible
29 Jul 7.8 13:58:56 10° WNW 19:10:05 59° ESE 21:09:00 16° ESE visible
30 Jul 8.0 14:14:55 10° WNW 19:23:42 64° ESE 21:24:15 20° ESE visible
31 Jul 8.2 14:30:55 10° WNW 19:36:04 69° ESE 21:39:29 24° ESE visible
01 Aug 5.1 06:21:40 10° ESE 06:21:40 10° ESE 06:21:40 10° ESE visible
01 Aug 8.3 14:46:56 10° WNW 19:46:03 74° ESE 21:54:40 28° ESE visible
02 Aug 4.0 06:36:41 20° ESE 06:36:41 20° ESE 06:37:27 10° E visible
02 Aug 8.4 15:02:57 10° WNW 19:51:18 79° ESE 22:09:51 33° ESE visible
03 Aug 2.3 06:51:41 43° SE 06:51:41 43° SE 06:53:11 10° E visible
03 Aug 8.4 15:19:02 10° WNW 19:47:19 83° SE 22:24:59 37° SE visible
